SCP
0 0 0 0 0 0 0 0 0 0 0 0 0 0 0 0 0 0 0 0 0 0 0 0 0 0 0 0 0 0 0 0 0 0 0 0 0 0 0 0 0 0 0 0
0 0 0 0 0 0 0 0 0 0 0 0 0 0 0 0 0 0 0 0 0 0 0 0 0 0 0 0 0 0 0 0 0 0 0 -0 0 0 0 0 0 0 0 0
0 0 0 0 0 0 0 0 0 0 0 0 0 0 0 0 0 0 0 0 0 0 0 0 0 0 0 0 0 0 0 0 0 0 -0 -0 0 0 0 0 0 0 0 0
0 0 0 0 0 0 0 0 0 0 0 0 0 0 0 0 0 0 0 0 0 0 0 0 0 0 0 0 0 0 0 0 0 0 0 0 0 0 0 0 0 0 0 0
0 0 0 0 0 0 0 0 0 0 0 0 0 0 0 0 0 0 0 0 0 -0 -0 -0 0 0 0 0 0 0 0 0 0 0 0 0 0 0 0 0 0 0 0 0
0 0 0 0 0 0 0 0 0 0 0 0 0 0 0 0 0 0 0 0 0 0 0 0 0 0 0 0 0 0 0 0 0 0 0 0 0 0 0 0 0 0 0 0
0 0 0 0 0 0 0 0 0 0 0 0 0 0 0 0 0 0 0 0 0 0 0 0 0 0 0 0 0 0 0 0 0 0 0 0 0 0 0 0 0 0 0 0
0 0 0 0 0 0 0 0 0 0 0 0 0 -0 0 0 0 0 0 0 0 0 0 0 0 0 0 0 0 0 0 0 0 0 0 0 0 0 0 0 0 0 0 0
0 0 0 0 0 0 0 0 0 0 0 0 -0 -0 0 0 0 0 0 0 0 0 0 0 0 0 0 0 0 0 0 0 0 0 0 0 0 0 -0 -0 0 0 0 0
0 0 0 -0 -0 0 0 0 0 0 0 0 0 0 0 0 0 0 0 0 0 0 0 0 0 0 0 0 0 0 0 0 0 0 0 0 0 0 0 0 0 0 0 0
0 0 0 -0 -0 0 0 0 0 0 0 0 0 0 0 0 0 0 0 0 0 0 0 0 0 0 0 0 0 0 0 0 0 0 0 0 0 0 0 0 0 0 0 0
0 0 0 0 -0 -0 0 0 0 0 0 0 0 0 0 0 0 0 0 -0 0 0 0 0 0 0 0 0 0 0 0 0 0 0 0 0 0 0 0 0 0 0 0 0
0 0 0 0 0 0 0 0 0 0 0 0 0 0 0 0 0 0 0 -0 0 0 0 0 0 0 0 0 0 0 0 0 0 0 0 0 -0 -0 0 0 0 0 0 0
0 0 0 0 0 0 0 0 0 0 0 0 0 0 0 0 0 0 0 0 0 0 0 0 0 0 0 0 0 0 0 0 0 0 0 0 -0 -0 -0 -0 0 0 0 0
0 0 0 0 0 0 0 0 0 0 0 0 0 0 0 0 0 0 0 0 0 0 0 0 0 0 0 0 0 0 0 0 0 -0 -0 0 0 0 0 0 0 0 0 0
0 0 0 0 0 0 0 0 -0 -0 0 0 0 0 0 0 0 0 0 0 0 0 0 0 0 0 0 0 0 0 0 -0 -0 -0 0 0 0 0 0 0 0 0 0 0
0 0 0 0 0 0 0 -0 -0 -0 0 0 0 0 0 0 0 0 0 0 0 0 0 0 0 0 0 0 0 0 0 -0 -0 0 0 0 0 0 0 0 0 0 0 0
0 0 0 0 0 0 0 -0 -0 -0 0 0 0 0 0 0 0 0 0 0 0 0 0 0 0 0 0 0 0 0 0 -0 -0 0 0 0 0 0 0 0 0 0 0 0
0 0 0 0 0 0 0 0 0 0 0 0 0 0 0 0 0 0 0 0 0 0 0 0 -0 0 0 0 0 0 0 -0 0 0 0 0 0 0 0 0 0 0 0 0
0 0 0 0 0 0 0 0 0 0 0 0 0 0 0 0 0 0 0 0 0 0 0 0 0 0 0 0 0 0 0 0 0 0 0 0 0 0 0 0 0 0 0 0
0 0 0 0 0 0 0 0 0 0 0 0 0 0 0 0 0 0 0 0 0 0 0 0 0 0 0 0 0 0 0 0 0 0 0 0 0 0 0 0 0 0 0 0
0 0 0 0 0 0 0 0 0 0 0 0 0 0 0 0 0 0 0 0 0 0 0 0 0 0 0 0 0 0 0 0 0 0 0 0 0 0 0 0 0 0 0 0
0 0 0 0 0 0 0 0 0 0 0 0 0 0 0 0 0 0 0 0 0 0 0 0 0 0 0 0 0 0 0 0 0 0 0 0 0 0 0 0 0 0 0 0
0 0 0 0 0 0 0 0 0 0 0 0 0 0 0 0 0 0 0 0 0 0 0 0 0 0 0 0 0 0 0 0 0 0 0 0 0 0 0 0 0 0 0 0
0 0 0 0 0 0 0 0 0 0 0 0 0 0 0 0 0 0 0 0 0 0 -0 0 0 0 0 0 0 0 0 0 0 0 0 0 0 0 0 0 0 0 0 0
0 0 0 0 0 0 0 0 0 0 0 0 0 0 0 0 0 0 0 0 0 -0 -0 0 0 0 0 0 0 0 0 0 0 0 0 0 0 0 0 0 0 0 0 0
Wind_Speed
1 2 3 6 6 4 3 3 5 5 3 2 6 10 11 6 4 5 5 4 4 4 3 1 1 2 2 2 3 3 3 3 3 2 2 2 2 1 1 1 1 2 2 2
2 3 5 3 3 2 3 4 5 5 2 2 5 10 9 5 5 6 5 5 5 3 2 1 0 1 2 2 3 3 3 4 3 3 2 2 1 1 1 1 1 1 2 2
6 4 2 3 2 3 4 5 5 5 4 2 4 8 5 3 3 3 3 4 3 3 3 2 1 1 1 1 2 3 4 4 3 3 2 2 2 1 1 1 0 0 1 1
3 3 1 2 3 4 5 4 4 3 1 3 1 5 6 3 4 4 3 2 3 3 3 2 2 2 2 2 1 1 2 3 3 3 4 4 3 2 2 1 1 1 1 1
3 1 2 3 4 4 4 1 1 1 2 3 1 3 9 2 4 5 4 3 3 3 3 3 2 2 1 1 1 1 2 2 3 3 3 3 2 2 1 1 1 1 0 1
3 1 2 3 1 2 2 2 2 2 2 3 3 4 9 4 5 4 3 3 3 2 2 2 1 0 1 1 1 1 2 2 2 3 3 3 3 2 2 1 1 0 0 0
2 1 1 1 2 1 2 3 3 4 2 6 2 4 10 6 4 4 4 4 3 2 1 1 0 0 1 1 0 1 2 1 2 2 2 3 3 3 3 3 2 1 0 1
1 3 1 0 2 3 2 4 5 4 4 5 2 7 9 4 3 2 2 1 1 2 1 1 2 1 1 0 0 1 2 1 1 2 2 2 2 2 2 2 2 2 2 2
3 3 1 1 0 4 3 2 3 4 1 3 6 7 9 2 2 1 1 1 2 2 2 2 2 1 1 1 1 1 2 2 2 2 1 1 1 2 2 2 2 2 1 1
3 2 2 2 1 2 2 5 3 3 2 4 6 6 6 4 3 2 1 2 2 2 2 2 2 1 1 1 0 0 1 2 1 1 1 1 1 1 1 1 2 2 1 1
2 2 3 1 3 4 2 2 3 2 3 4 4 8 6 5 3 3 3 3 3 2 2 2 2 2 1 1 0 0 0 1 1 1 1 1 1 1 1 1 2 2 1 1
2 3 2 4 3 2 3 4 6 4 4 4 3 10 3 3 3 3 4 3 3 2 2 1 1 1 1 1 1 0 0 1 1 1 1 1 1 1 1 1 2 1 1 2
4 4 1 4 3 1 1 2 2 2 3 4 5 10 2 0 1 2 3 3 3 2 2 1 1 1 1 1 1 1 1 1 1 1 1 1 1 1 1 2 2 2 2 2
3 4 6 7 5 3 4 4 4 4 4 6 10 10 7 5 5 5 4 3 2 2 2 1 2 2 2 2 2 1 1 1 1 1 1 1 1 2 2 2 2 2 2 2
3 3 4 6 5 4 7 8 8 9 9 9 9 10 11 7 6 6 4 3 3 2 2 2 2 2 2 2 2 1 1 1 0 1 1 2 2 1 2 2 2 2 2 3
2 2 1 4 4 5 8 11 11 11 9 10 10 13 8 5 4 4 4 4 4 4 3 3 3 3 3 3 2 1 1 1 0 1 1 1 1 1 2 2 2 2 2 2
3 4 1 4 3 4 9 9 10 7 8 8 12 12 4 4 5 5 5 4 5 5 4 4 3 4 3 3 2 2 1 1 0 1 1 1 1 2 2 2 2 2 3 2
6 4 2 2 2 8 8 2 6 7 7 8 7 6 5 6 5 4 4 4 4 4 4 4 3 3 3 2 2 1 1 1 1 1 2 2 1 2 2 2 2 2 2 2
5 6 3 2 4 9 8 3 4 5 7 6 8 8 5 2 2 3 3 3 4 4 4 4 3 3 3 2 1 0 1 1 1 2 2 2 2 2 2 2 3 3 2 2
2 3 4 3 4 8 7 2 2 2 6 5 6 6 3 1 1 4 2 1 2 3 2 2 2 2 2 2 1 1 1 1 2 2 3 2 2 2 3 3 3 2 2 3
4 3 5 5 6 10 7 2 3 3 7 3 4 4 4 4 5 3 2 2 2 3 3 2 2 2 2 1 1 1 1 2 3 2 2 2 2 2 2 2 2 2 2 2
8 7 7 6 6 11 3 5 7 7 3 2 2 3 4 4 4 3 2 2 2 2 2 1 1 2 2 1 1 1 2 3 2 2 2 2 2 2 2 2 2 2 2 2
8 9 7 10 9 4 5 6 5 2 3 3 3 3 3 3 3 3 2 2 2 2 2 1 1 1 2 1 1 2 3 2 2 2 2 2 2 2 2 2 2 2 2 2
4 2 4 5 8 5 5 5 4 3 4 4 3 3 3 3 3 3 3 3 2 2 2 1 1 1 2 2 2 2 2 1 1 2 2 2 2 2 2 2 2 2 2 2
6 5 4 6 6 4 5 6 6 4 3 2 2 2 3 3 3 3 3 3 3 2 2 1 1 2 3 2 2 2 2 1 1 2 2 2 2 2 2 2 2 3 3 4
6 8 8 8 7 6 5 4 4 4 4 4 2 2 2 3 3 3 3 3 2 2 2 1 2 2 3 2 3 2 2 1 1 2 2 2 1 1 2 2 3 3 4 5
Wind_Direction
54 93 205 217 207 212 192 216 254 262 276 282 258 269 277 274 255 249 249 240 238 244 259 252 181 151 153 165 165 172 166 167 151 146 154 158 176 186 184 193 174 165 163 154
55 243 234 211 196 208 221 242 264 285 294 274 279 276 272 253 239 238 235 234 233 246 274 271 182 137 172 180 179 174 177 176 178 176 174 167 153 154 148 110 88 166 166 163
194 234 210 177 193 211 236 227 244 266 315 313 311 296 282 286 260 265 241 232 230 221 233 240 216 218 214 206 187 185 188 186 187 165 134 113 95 76 76 81 128 90 140 153
225 260 199 190 211 195 249 238 231 240 299 301 30 292 284 279 290 273 261 249 243 243 238 238 229 227 222 227 205 176 170 160 154 148 152 152 158 173 190 177 160 98 114 130
240 217 188 212 227 195 222 241 206 214 194 294 283 236 282 293 278 271 259 260 258 245 231 233 231 229 238 215 166 158 143 137 133 140 150 152 160 158 131 127 134 134 117 128
243 236 196 208 214 185 171 72 54 52 82 272 229 194 275 251 241 265 272 273 274 262 250 245 253 56 16 49 75 117 136 133 137 144 151 161 168 157 146 167 174 178 66 176
309 286 273 138 96 33 104 98 20 353 348 254 210 211 251 254 245 236 259 279 294 286 259 244 270 13 7 22 71 120 131 141 150 152 165 177 180 174 182 191 194 192 205 247
231 277 254 170 169 178 187 152 165 209 237 280 277 238 254 259 275 264 267 286 329 342 311 268 237 221 221 225 158 157 161 166 157 162 185 185 180 177 186 193 195 197 209 222
186 249 340 8 307 145 147 179 169 138 155 279 270 280 297 259 285 322 340 7 342 310 301 290 276 248 222 214 228 206 190 189 176 177 177 181 187 180 187 196 193 204 211 218
153 251 293 314 69 19 153 148 112 134 183 262 282 268 255 269 261 280 300 309 312 317 321 311 298 284 263 236 256 204 187 203 198 175 179 197 195 190 187 184 200 211 221 226
131 167 301 349 195 199 133 140 135 137 171 184 267 269 232 222 224 235 254 269 282 294 297 304 309 315 321 342 21 42 184 182 204 187 175 168 187 179 176 196 221 221 223 229
136 133 248 254 262 249 195 181 156 170 226 202 226 268 270 221 223 221 253 269 281 282 283 291 305 335 343 337 330 297 258 219 227 197 167 177 186 183 202 233 245 228 226 238
142 128 4 334 333 353 250 204 177 147 150 186 210 262 288 341 282 261 263 278 282 288 301 317 336 324 307 305 304 290 271 251 226 174 160 170 205 212 234 247 253 245 237 246
130 158 192 217 234 208 248 248 216 175 203 225 230 256 282 290 295 297 288 276 270 273 273 291 308 299 291 289 286 282 282 260 222 170 171 210 236 235 244 251 251 249 240 245
121 202 231 255 260 239 240 236 220 217 218 225 245 246 261 264 268 273 266 266 274 272 261 268 278 286 291 292 296 299 290 277 242 185 215 246 254 256 258 264 261 257 247 249
137 187 225 276 262 254 262 246 227 229 230 242 262 269 258 260 261 260 254 251 258 260 259 265 271 277 279 274 275 283 285 280 235 238 260 270 267 265 262 267 268 268 261 261
164 154 178 270 304 321 268 235 208 214 214 209 234 249 254 254 256 250 246 238 240 252 261 264 263 263 267 269 263 261 271 274 244 261 278 271 260 266 272 275 274 269 264 259
162 159 180 270 349 247 250 212 198 219 240 226 243 261 252 244 263 259 233 223 241 249 251 257 262 268 271 266 270 279 294 294 276 274 278 277 271 270 273 271 273 271 258 255
179 162 166 192 251 275 290 242 184 203 266 233 234 254 262 262 333 297 243 217 229 243 250 249 249 258 263 258 249 241 291 285 280 278 276 273 273 269 264 267 269 265 254 256
132 151 162 178 222 249 257 245 190 121 286 257 218 236 235 116 285 271 274 268 267 274 270 255 259 262 258 259 200 169 251 270 274 276 279 281 273 265 263 264 264 262 249 253
153 174 197 202 232 262 255 220 129 170 252 262 207 216 193 200 222 253 303 302 286 288 288 270 258 262 258 243 175 205 252 267 275 283 286 289 283 271 267 273 267 261 257 257
179 180 194 179 213 252 212 147 186 220 247 233 211 212 211 228 252 270 281 290 303 308 308 293 283 292 288 240 181 230 263 276 292 292 293 292 287 280 280 269 274 263 250 253
203 194 187 195 215 240 189 203 223 215 231 235 219 223 203 228 253 269 276 277 285 284 285 290 259 297 309 292 220 236 269 284 293 298 295 297 295 287 281 263 265 261 243 246
240 194 189 242 257 249 242 248 258 241 234 239 229 222 202 222 247 265 271 276 280 281 274 281 266 278 295 301 283 254 273 279 274 287 296 296 294 292 287 271 258 249 244 243
213 176 204 246 264 280 262 236 239 239 240 245 246 222 214 210 240 244 255 263 264 279 284 270 247 259 277 290 289 283 279 265 273 283 290 294 289 286 286 277 265 257 247 247
193 185 191 228 225 209 241 240 218 215 233 233 228 248 244 208 222 238 249 253 252 262 273 272 266 263 276 284 288 290 287 250 252 276 286 286 288 288 289 294 307 298 281 284